Regional Weather Roundup
Issued by NWS

Home | Current Version | Previous Version | Text Only | Print | Product List | Glossary On
Versions: 1 2 3 4 5 6 7 8 9 10 11 12 13 14 15 16 17 18 19 20 21 22 23 24 25 26 27 28 29 30 31 32 33 34 35 36 37 38 39 40 41 42 43 44 45 46 47 48 49 50
000
ASUS44 KFWD 281415
RWRTX
NORTH TEXAS HOURLY WEATHER ROUNDUP
NATIONAL WEATHER SERVICE FORT WORTH TX
900 AM CDT FRI APR 28 2017

NOTE: "FAIR" INDICATES FEW OR NO CLOUDS BELOW 12,000 FEET WITH NO
SIGNIFICANT WEATHER AND/OR OBSTRUCTIONS TO VISIBILITY.

TXZ118-119-281500-
DALLAS/FORT WORTH METROPLEX

CITY           SKY/WX    TMP DP  RH WIND       PRES   REMARKS
DFW AIRPORT    CLOUDY    73  65  75 SW13      29.61R
DALLAS LOVE    CLOUDY    73  64  73 SW7       29.62R
FTW MEACHAM    PTSUNNY   72  65  78 S14       29.62R
DAL-EXECUTIVE  PTSUNNY   72  66  81 S9G21     29.60R
FTW-ALLIANCE   CLOUDY    71  64  78 S12       29.61R
FTW-NAS-JRB    PTSUNNY   72  64  76 SW8       29.63R
FTW-SPINKS     MOSUNNY   73  64  73 S16G24    29.62R
ARLINGTON      CLOUDY    72  64  76 S8G17     29.62R
GRAND PRAIRIE  MOSUNNY   70  63  78 S9G21     29.63R
ADDISON        CLOUDY    72  64  78 S12G17    29.62R
MESQUITE       PTSUNNY   70  66  88 SE13G20   29.61R
LANCASTER      PTSUNNY   72  65  81 S12G22    29.62R
$$

TXZ091>094-102>105-117-120-121-131>134-281500-
NORTH CENTRAL TEXAS

CITY           SKY/WX    TMP DP  RH WIND       PRES   REMARKS
SHRMAN/DENISON CLOUDY    66  62  86 SE6       29.64R
GAINESVILLE    CLOUDY    66  62  86 S7        29.63R
BOWIE          CLOUDY    67  65  91 SE7       29.59S
BRIDGEPORT     CLOUDY    68  62  79 S9        29.61S
DECATUR        CLOUDY    68  62  81 S9        29.62R
DENTON         CLOUDY    70  64  81 S12       29.61R
MCKINNEY       CLOUDY    69  65  86 S3        29.64R
BONHAM         CLOUDY    64  61  88 E5        29.65R
GREENVILLE     PTSUNNY   73  66  78 S12       29.63R
ROCKWALL       CLOUDY    71  65  83 S14       29.62R
TERRELL        PTSUNNY   72  65  78 S17G23    29.62R
WAXAHACHIE     PTSUNNY   71  66  85 S12G18    29.62R
CLEBURNE       PTSUNNY   72  68  88 S15G28    29.63R
GRANBURY       CLOUDY    72  63  73 SW7       29.64R
$$

TXZ083>090-098>101-113>116-127>130-139>142-154-155-281500-
WESTERN NORTH TEXAS

CITY           SKY/WX    TMP DP  RH WIND       PRES   REMARKS
WICHITA FALLS  CLOUDY    63  57  81 N7        29.58R
VERNON         CLOUDY    61  50  65 N7        29.62S
ABILENE        CLOUDY    70  61  73 NW10      29.63R
ABILENE-DYESS  CLOUDY    66  53  63 NW8       29.62R
GRAHAM         CLOUDY    70  63  79 S6        29.57R
BRECKENRIDGE   CLOUDY    73  63  70 S9        29.60R
CISCO          CLOUDY    70  64  83 SW9       29.63R
RANGER         PTSUNNY   67  63  87 SW3       29.63R
MINERAL WELLS  CLOUDY    68  62  81 SE6       29.60R
STEPHENVILLE   SUNNY     69  62  79 S8        29.63R
COMANCHE       CLOUDY    71  65  82 S15G22    29.60R
BROWNWOOD      CLOUDY    70  64  83 S8        29.62R
COLEMAN        CLOUDY    72  64  76 SW6       29.63R
$$

TXZ143>147-156>162-174-175-281500-
CENTRAL TEXAS

CITY           SKY/WX    TMP DP  RH WIND       PRES   REMARKS
WACO           MOSUNNY   74  67  78 S17       29.62S
WACO-MCGREGOR  SUNNY     75  67  76 S16G23    29.63S
HILLSBORO      MOSUNNY   73  67  80 S20       29.62R
CORSICANA      MOSUNNY   76  69  79 S18G24    29.64S
MEXIA          CLOUDY    73  67  81 S18       29.65R
HEARNE         CLOUDY    73  72  95 S6        29.67R
CAMERON        CLOUDY    75  69  80 SW9       29.66R
TEMPLE         PTSUNNY   74  68  81 S9        29.65R
KILLEEN        MOSUNNY   73  66  77 S15       29.62F
KILLEEN-SKYLRK PTSUNNY   74  66  76 S14       29.64S
FORT HOOD      SUNNY     73  65  77 S14       29.60F
GATESVILLE     SUNNY     73  64  73 S14G21    29.64S
HAMILTON       SUNNY     72  65  81 S14       29.62S
LAMPASAS       SUNNY     73  67  81 S8G17     29.63S
$$

TXZ095>097-106>112-122>126-135>138-148>153-164>167-281500-
EAST TEXAS

CITY           SKY/WX    TMP DP  RH WIND       PRES   REMARKS
PARIS          CLOUDY    64  57  77 SE7       29.67R
SULPHUR SPRNGS CLOUDY    73  66  80 S15G22    29.64S
MOUNT PLEASANT PTSUNNY   69  63  81 SE9       29.67F
GILMER         CLOUDY    68  64  87 SE6       29.67S
MINEOLA        CLOUDY    73  68  83 S9G22     29.64S
TYLER          CLOUDY    72  68  87 S10       29.66S
LONGVIEW       CLOUDY    71  69  93 S6        29.68R FOG
MARSHALL       CLOUDY    70  66  88 CALM      29.71R
ATHENS         CLOUDY    70  68  94 S10       29.65R
PALESTINE      CLOUDY    74  70  88 S8        29.68R
JACKSONVILLE   CLOUDY    72  70  93 S6        29.69R FOG
HENDERSON      CLOUDY    73  69  87 S6        29.69R
CENTER         CLOUDY    80  75  86 S14G21    29.69S
NACOGDOCHES    CLOUDY    75  70  83 S9        29.67R
LUFKIN         CLOUDY    76  71  85 S10G17    29.67R
$$

SUPPLEMENTAL OBSERVATIONS (CENTRAL)

CITY           SKY/WX    TMP DP  RH WIND       PRES   REMARKS
DENISON DAM      N/A     66  61  82 SE5         N/A
CADDO GRASSLND   N/A     64  59  82 E2          N/A
PAT MAYSE LAKE   N/A    N/A N/A N/A N2          N/A
GREENVILLE       N/A     72  64  78 S6          N/A
CEDAR HILL       N/A     73  64  73 S8G21       N/A
LAKE LIMESTONE   N/A     75  68  78 S10         N/A
TEMPLE           N/A     73  66  78 S10         N/A
$$

SUPPLEMENTAL OBSERVATIONS (WEST)

CITY           SKY/WX    TMP DP  RH WIND       PRES   REMARKS
MILLERS CREEK    N/A     63  52  67 NW9         N/A
POSSUM KINGDOM   N/A     72  64  78 S9          N/A
LBJ GRASSLAND    N/A     68  63  83 SE8         N/A
GRANBURY         N/A     72  63  73 SW8G17      N/A
COMANCHE         N/A     72  64  78 SW9G24      N/A
HAMBY            N/A     66  52  59 N7          N/A
IVIE RESERVOIR   N/A     75  64  69 SW7         N/A
COLORADO BEND    N/A     72  63  73 SW14        N/A
$$

SUPPLEMENTAL OBSERVATIONS (EAST)

CITY           SKY/WX    TMP DP  RH WIND       PRES   REMARKS
CLARKSVILLE      N/A     66  61  82 SE8         N/A
TEXARKANA        N/A     66  63  88 SE3         N/A
LINDEN           N/A     64  61  88 E3          N/A
CADDO LAKE       N/A     70  66  88 CALM        N/A
GILMER           N/A     72  66  83 S7          N/A
HENDERSON        N/A     75  70  83 S10         N/A
S SABINE NF      N/A     75  70  83 S6          N/A
$$

SUPPLEMENTAL OBSERVATIONS ARE A COLLECTION OF AUTOMATED INSTRUMENTS
THAT ARE MAINTAINED BY A VARIETY OF FEDERAL AND STATE AGENCIES.
CERTAIN ELEMENTS...SUCH AS HUMIDITY VALUES AND SUSTAINED WIND
SPEEDS...MAY BE APPROXIMATED.




USA.gov is the U.S. government's official web portal to all federal, state and local government web resources and services.